| time (UTC) | temp F | wind direction | speed MPH | gust MPH | rain 1hr in | rain 24hr in | rain mn in | humidity % | barometer mb |
| 20260502170506 | 69 | 354 | 1.0 | 6.0 | 0.00 | 0.00 | 0.00 | 52 | 1011.7 |
| 20260502164005 | 69 | 5 | 2.0 | 6.0 | 0.00 | 0.00 | 0.00 | 52 | 1012.1 |
| 20260502163005 | 67 | 344 | 0.0 | 5.0 | 0.00 | 0.00 | 0.00 | 57 | 1012.1 |
| 20260502162006 | 66 | 338 | 0.0 | 0.0 | 0.00 | 0.00 | 0.00 | 58 | 1012.3 |
| 20260502161504 | 66 | 350 | 2.0 | 7.0 | 0.00 | 0.00 | 0.00 | 58 | 1012.4 |
| 20260502160506 | 66 | 338 | 1.0 | 2.0 | 0.00 | 0.00 | 0.00 | 58 | 1012.6 |
| 20260502152004 | 65 | 349 | 1.0 | 6.0 | 0.00 | 0.00 | 0.00 | 60 | 1012.4 |
| 20260502151005 | 65 | 338 | 0.0 | 2.0 | 0.00 | 0.00 | 0.00 | 61 | 1012.4 |
| 20260502150505 | 65 | 0 | 0.0 | 0.0 | 0.00 | 0.00 | 0.00 | 61 | 1012.4 |
| 20260502130504 | 58 | 0 | 0.0 | 2.0 | 0.00 | 0.00 | 0.00 | 71 | 1012.6 |
| 20260502123505 | 59 | 315 | 0.0 | 0.0 | 0.00 | 0.00 | 0.00 | 72 | 1012.7 |
| 20260502123004 | 58 | 292 | 0.0 | 0.0 | 0.00 | 0.00 | 0.00 | 74 | 1012.7 |
| 20260502122504 | 58 | 292 | 0.0 | 0.0 | 0.00 | 0.00 | 0.00 | 75 | 1012.6 |
| 20260502122005 | 57 | 292 | 0.0 | 0.0 | 0.00 | 0.00 | 0.00 | 76 | 1012.7 |
| 20260502121505 | 57 | 338 | 0.0 | 0.0 | 0.00 | 0.00 | 0.00 | 77 | 1012.7 |
| 20260502121005 | 56 | 315 | 0.0 | 3.0 | 0.00 | 0.00 | 0.00 | 78 | 1012.9 |
| 20260502120504 | 56 | 270 | 0.0 | 0.0 | 0.00 | 0.00 | 0.00 | 79 | 1012.7 |
| 20260502115508 | 56 | 270 | 0.0 | 0.0 | 0.00 | 0.00 | 0.00 | 80 | 1012.5 |
| 20260502114505 | 55 | 180 | 0.0 | 0.0 | 0.00 | 0.00 | 0.00 | 82 | 1012.4 |
| 20260502114004 | 55 | 180 | 0.0 | 0.0 | 0.00 | 0.00 | 0.00 | 83 | 1012.3 |
| 20260502113005 | 54 | 180 | 0.0 | 0.0 | 0.00 | 0.00 | 0.00 | 84 | 1012.4 |
| 20260502112005 | 51 | 180 | 0.0 | 0.0 | 0.00 | 0.00 | 0.00 | 86 | 1012.4 |
| 20260502111504 | 50 | 180 | 0.0 | 0.0 | 0.00 | 0.00 | 0.00 | 86 | 1012.5 |
| 20260502111004 | 50 | 180 | 0.0 | 0.0 | 0.00 | 0.00 | 0.00 | 87 | 1012.5 |
| 20260502110504 | 49 | 180 | 0.0 | 0.0 | 0.00 | 0.00 | 0.00 | 87 | 1012.5 |
| 20260502110005 | 49 | 180 | 0.0 | 0.0 | 0.00 | 0.00 | 0.00 | 87 | 1012.4 |
| 20260502105505 | 48 | 180 | 0.0 | 0.0 | 0.00 | 0.00 | 0.00 | 87 | 1012.3 |
| 20260502105004 | 48 | 180 | 0.0 | 0.0 | 0.00 | 0.00 | 0.00 | 86 | 1012.4 |
| 20260502104506 | 47 | 180 | 0.0 | 0.0 | 0.00 | 0.00 | 0.00 | 86 | 1012.3 |
| 20260502104005 | 47 | 180 | 0.0 | 0.0 | 0.00 | 0.00 | 0.00 | 86 | 1012.2 |
| 20260502103505 | 47 | 180 | 0.0 | 0.0 | 0.00 | 0.00 | 0.00 | 86 | 1012.1 |
| 20260502103005 | 47 | 180 | 0.0 | 0.0 | 0.00 | 0.00 | 0.00 | 86 | 1012.0 |
| 20260502102504 | 47 | 180 | 0.0 | 0.0 | 0.00 | 0.00 | 0.00 | 86 | 1011.9 |
| 20260502102004 | 47 | 180 | 0.0 | 0.0 | 0.00 | 0.00 | 0.00 | 86 | 1011.9 |
| 20260502101505 | 47 | 180 | 0.0 | 0.0 | 0.00 | 0.00 | 0.00 | 86 | 1012.0 |
| 20260502101005 | 47 | 180 | 0.0 | 0.0 | 0.00 | 0.00 | 0.00 | 86 | 1012.0 |
| 20260502100505 | 47 | 180 | 0.0 | 0.0 | 0.00 | 0.00 | 0.00 | 86 | 1011.7 |
| 20260502091505 | 49 | 202 | 0.0 | 0.0 | 0.00 | 0.00 | 0.00 | 84 | 1011.6 |
| 20260502091006 | 49 | 202 | 0.0 | 0.0 | 0.00 | 0.00 | 0.00 | 84 | 1011.8 |
| 20260502090505 | 49 | 202 | 0.0 | 0.0 | 0.00 | 0.00 | 0.00 | 84 | 1011.7 |
| 20260502071504 | 51 | 225 | 0.0 | 3.0 | 0.00 | 0.00 | 0.00 | 87 | 1011.8 |
| 20260502071004 | 51 | 225 | 0.0 | 5.0 | 0.00 | 0.00 | 0.00 | 87 | 1012.0 |
| 20260502070505 | 51 | 202 | 0.0 | 0.0 | 0.00 | 0.00 | 0.00 | 87 | 1012.0 |
| 20260502070004 | 51 | 202 | 0.0 | 0.0 | 0.00 | 0.00 | 0.00 | 87 | 1012.0 |
| 20260502065004 | 51 | 180 | 0.0 | 0.0 | 0.00 | 0.00 | 0.00 | 87 | 1012.2 |
| 20260502064505 | 51 | 195 | 0.0 | 3.0 | 0.00 | 0.00 | 0.00 | 87 | 1012.1 |
| 20260502064004 | 51 | 225 | 0.0 | 0.0 | 0.00 | 0.00 | 0.00 | 87 | 1012.1 |
| 20260502063504 | 51 | 225 | 0.0 | 0.0 | 0.00 | 0.00 | 0.00 | 87 | 1012.0 |
| 20260502062504 | 51 | 222 | 1.0 | 7.0 | 0.00 | 0.00 | 0.00 | 87 | 1011.8 |
| 20260502062004 | 52 | 206 | 1.0 | 5.0 | 0.00 | 0.00 | 0.00 | 87 | 1011.8 |
| 20260502061505 | 52 | 202 | 2.0 | 7.0 | 0.00 | 0.00 | 0.00 | 87 | 1011.7 |
| 20260502061004 | 52 | 187 | 2.0 | 9.0 | 0.00 | 0.00 | 0.00 | 87 | 1011.8 |
| 20260502060505 | 52 | 188 | 3.0 | 9.0 | 0.00 | 0.00 | 0.00 | 87 | 1011.9 |
| 20260502060004 | 52 | 184 | 5.0 | 10.0 | 0.00 | 0.00 | 0.00 | 87 | 1012.0 |
| 20260502055504 | 52 | 201 | 2.0 | 7.0 | 0.00 | 0.00 | 0.00 | 87 | 1012.1 |
| 20260502054004 | 52 | 202 | 3.0 | 10.0 | 0.00 | 0.00 | 0.00 | 88 | 1012.1 |
| 20260502053004 | 52 | 204 | 1.0 | 8.0 | 0.00 | 0.00 | 0.00 | 88 | 1012.1 |
| 20260502052504 | 51 | 180 | 0.0 | 5.0 | 0.00 | 0.00 | 0.00 | 89 | 1012.2 |
| 20260502052004 | 51 | 194 | 6.0 | 9.0 | 0.00 | 0.00 | 0.00 | 89 | 1012.3 |
| 20260502051504 | 51 | 225 | 1.0 | 5.0 | 0.00 | 0.00 | 0.00 | 89 | 1012.3 |
| 20260502051005 | 51 | 202 | 3.0 | 0.0 | 0.00 | 0.00 | 0.00 | 90 | 1012.4 |
| 20260502050504 | 51 | 202 | 3.0 | 0.0 | 0.00 | 0.00 | 0.00 | 90 | 1012.4 |
| 20260502050004 | 51 | 185 | 1.0 | 6.0 | 0.00 | 0.00 | 0.00 | 90 | 1012.4 |
| 20260502045504 | 51 | 210 | 1.0 | 7.0 | 0.00 | 0.00 | 0.00 | 90 | 1012.2 |
| 20260502045004 | 51 | 193 | 1.0 | 7.0 | 0.00 | 0.00 | 0.00 | 91 | 1012.4 |
| 20260502044504 | 51 | 220 | 2.0 | 9.0 | 0.00 | 0.00 | 0.00 | 91 | 1012.3 |
| 20260502044004 | 51 | 180 | 2.0 | 7.0 | 0.00 | 0.00 | 0.00 | 91 | 1012.4 |
| 20260502043505 | 50 | 191 | 2.0 | 12.0 | 0.00 | 0.00 | 0.00 | 92 | 1012.2 |
| 20260502043004 | 50 | 195 | 1.0 | 8.0 | 0.00 | 0.00 | 0.00 | 92 | 1012.2 |
| 20260502042504 | 50 | 178 | 4.0 | 7.0 | 0.00 | 0.00 | 0.00 | 92 | 1012.2 |
| 20260502042004 | 49 | 180 | 0.0 | 5.0 | 0.00 | 0.00 | 0.00 | 91 | 1012.7 |
| 20260502041504 | 49 | 182 | 2.0 | 7.0 | 0.00 | 0.00 | 0.00 | 91 | 1012.4 |
| 20260502041004 | 49 | 202 | 0.0 | 5.0 | 0.00 | 0.00 | 0.00 | 91 | 1012.1 |
| 20260502040504 | 49 | 195 | 0.0 | 0.0 | 0.00 | 0.00 | 0.00 | 90 | 1012.3 |
| 20260502040005 | 49 | 206 | 0.0 | 2.0 | 0.00 | 0.00 | 0.00 | 90 | 1012.3 |
| 20260502035504 | 48 | 202 | 0.0 | 3.0 | 0.00 | 0.00 | 0.00 | 90 | 1012.2 |
| 20260502035004 | 48 | 202 | 1.0 | 5.0 | 0.00 | 0.00 | 0.00 | 90 | 1012.2 |
| 20260502034504 | 48 | 220 | 0.0 | 6.0 | 0.00 | 0.00 | 0.00 | 89 | 1012.1 |
| 20260502034004 | 47 | 180 | 0.0 | 0.0 | 0.00 | 0.00 | 0.00 | 89 | 1011.9 |
| 20260502033504 | 47 | 180 | 0.0 | 0.0 | 0.00 | 0.00 | 0.00 | 87 | 1011.8 |
| 20260502032004 | 47 | 180 | 0.0 | 0.0 | 0.00 | 0.00 | 0.00 | 86 | 1011.7 |
| 20260502031504 | 47 | 187 | 0.0 | 0.0 | 0.00 | 0.00 | 0.00 | 85 | 1012.1 |
| 20260502031004 | 47 | 202 | 0.0 | 0.0 | 0.00 | 0.00 | 0.00 | 84 | 1012.2 |
| 20260502030504 | 47 | 202 | 0.0 | 0.0 | 0.00 | 0.00 | 0.00 | 83 | 1012.2 |
| 20260502024505 | 48 | 202 | 0.0 | 0.0 | 0.00 | 0.00 | 0.00 | 81 | 1012.2 |
| 20260502024004 | 48 | 225 | 0.0 | 0.0 | 0.00 | 0.00 | 0.00 | 81 | 1012.1 |
| 20260502023504 | 48 | 225 | 0.0 | 0.0 | 0.00 | 0.00 | 0.00 | 81 | 1012.5 |
| 20260502023005 | 48 | 225 | 0.0 | 0.0 | 0.00 | 0.00 | 0.00 | 80 | 1012.6 |
| 20260502022504 | 48 | 225 | 0.0 | 0.0 | 0.00 | 0.00 | 0.00 | 79 | 1012.6 |
| 20260502022004 | 48 | 246 | 0.0 | 0.0 | 0.00 | 0.00 | 0.00 | 79 | 1012.3 |
| 20260502021503 | 48 | 158 | 0.0 | 0.0 | 0.00 | 0.00 | 0.00 | 78 | 1012.2 |
| 20260502020505 | 48 | 158 | 0.0 | 0.0 | 0.00 | 0.00 | 0.00 | 77 | 1012.6 |
| 20260502020004 | 49 | 158 | 0.0 | 0.0 | 0.00 | 0.00 | 0.00 | 76 | 1012.8 |
| 20260502015504 | 49 | 158 | 0.0 | 0.0 | 0.00 | 0.00 | 0.00 | 75 | 1012.8 |
| 20260502015004 | 49 | 158 | 0.0 | 0.0 | 0.00 | 0.00 | 0.00 | 75 | 1012.8 |
| 20260502014504 | 49 | 153 | 0.0 | 0.0 | 0.00 | 0.00 | 0.00 | 74 | 1012.8 |
| 20260502014003 | 49 | 135 | 0.0 | 0.0 | 0.00 | 0.00 | 0.00 | 74 | 1012.7 |
| 20260502013504 | 50 | 219 | 0.0 | 0.0 | 0.00 | 0.00 | 0.00 | 72 | 1012.5 |
| 20260502013004 | 50 | 225 | 0.0 | 0.0 | 0.00 | 0.00 | 0.00 | 72 | 1012.5 |
| 20260502012004 | 51 | 202 | 0.0 | 0.0 | 0.00 | 0.00 | 0.00 | 71 | 1012.3 |
| 20260502011504 | 51 | 192 | 0.0 | 3.0 | 0.00 | 0.00 | 0.00 | 71 | 1012.3 |
| 20260502010504 | 51 | 181 | 0.0 | 3.0 | 0.00 | 0.00 | 0.00 | 70 | 1012.1 |
| 20260502010004 | 51 | 202 | 0.0 | 3.0 | 0.00 | 0.00 | 0.00 | 69 | 1012.0 |
| 20260502005504 | 51 | 202 | 0.0 | 0.0 | 0.00 | 0.00 | 0.00 | 68 | 1012.1 |
| 20260502005003 | 52 | 135 | 0.0 | 0.0 | 0.00 | 0.00 | 0.00 | 68 | 1012.2 |
| 20260502004504 | 52 | 135 | 0.0 | 5.0 | 0.00 | 0.00 | 0.00 | 68 | 1012.1 |
| 20260502003504 | 52 | 202 | 0.0 | 0.0 | 0.00 | 0.00 | 0.00 | 67 | 1012.0 |
| 20260502003004 | 53 | 207 | 0.0 | 0.0 | 0.00 | 0.00 | 0.00 | 66 | 1011.9 |
| 20260502002504 | 53 | 202 | 0.0 | 0.0 | 0.00 | 0.00 | 0.00 | 65 | 1011.8 |
| 20260502002005 | 53 | 202 | 1.0 | 3.0 | 0.00 | 0.00 | 0.00 | 65 | 1011.9 |
| 20260502001504 | 54 | 202 | 0.0 | 7.0 | 0.00 | 0.00 | 0.00 | 65 | 1011.9 |
| 20260502001005 | 54 | 202 | 0.0 | 5.0 | 0.00 | 0.00 | 0.00 | 64 | 1011.9 |
| 20260502000506 | 55 | 180 | 0.0 | 0.0 | 0.00 | 0.00 | 0.00 | 64 | 1011.9 |
| 20260502000006 | 55 | 206 | 2.0 | 6.0 | 0.00 | 0.00 | 0.00 | 63 | 1011.9 |
| 20260501235506 | 55 | 201 | 1.0 | 7.0 | 0.00 | 0.00 | 0.00 | 62 | 1011.6 |
| 20260501235005 | 55 | 202 | 1.0 | 7.0 | 0.00 | 0.00 | 0.00 | 61 | 1011.7 |
| 20260501234505 | 56 | 193 | 1.0 | 7.0 | 0.00 | 0.00 | 0.00 | 60 | 1011.7 |
| 20260501233505 | 57 | 205 | 2.0 | 9.0 | 0.00 | 0.00 | 0.00 | 59 | 1011.4 |
| 20260501232505 | 57 | 195 | 1.0 | 7.0 | 0.00 | 0.00 | 0.00 | 57 | 1011.5 |
| 20260501232005 | 58 | 199 | 2.0 | 10.0 | 0.00 | 0.00 | 0.00 | 56 | 1011.5 |
| 20260501231005 | 58 | 202 | 0.0 | 8.0 | 0.00 | 0.00 | 0.00 | 55 | 1011.3 |
| 20260501230505 | 59 | 201 | 2.0 | 7.0 | 0.00 | 0.00 | 0.00 | 55 | 1011.4 |
| 20260501225505 | 60 | 222 | 5.0 | 8.0 | 0.00 | 0.00 | 0.00 | 54 | 1011.5 |
| 20260501224506 | 60 | 196 | 6.0 | 13.0 | 0.00 | 0.00 | 0.00 | 52 | 1011.3 |
| 20260501224005 | 61 | 194 | 6.0 | 15.0 | 0.00 | 0.00 | 0.00 | 51 | 1011.2 |
| 20260501223506 | 61 | 211 | 2.0 | 8.0 | 0.00 | 0.00 | 0.00 | 50 | 1011.1 |
| 20260501223006 | 62 | 224 | 6.0 | 12.0 | 0.00 | 0.00 | 0.00 | 49 | 1011.2 |
| 20260501222506 | 62 | 225 | 3.0 | 15.0 | 0.00 | 0.00 | 0.00 | 49 | 1011.1 |
| 20260501222005 | 63 | 193 | 5.0 | 13.0 | 0.00 | 0.00 | 0.00 | 48 | 1011.1 |
| 20260501221505 | 63 | 213 | 2.0 | 10.0 | 0.00 | 0.00 | 0.00 | 47 | 1011.1 |
| 20260501221005 | 63 | 214 | 2.0 | 10.0 | 0.00 | 0.00 | 0.00 | 46 | 1011.0 |
| 20260501215505 | 64 | 214 | 4.0 | 12.0 | 0.00 | 0.00 | 0.00 | 45 | 1011.0 |
| 20260501215005 | 64 | 193 | 2.0 | 8.0 | 0.00 | 0.00 | 0.00 | 45 | 1010.9 |
| 20260501214505 | 64 | 207 | 0.0 | 5.0 | 0.00 | 0.00 | 0.00 | 45 | 1010.9 |
| 20260501214005 | 64 | 209 | 5.0 | 12.0 | 0.00 | 0.00 | 0.00 | 44 | 1011.0 |
| 20260501213506 | 65 | 193 | 7.0 | 13.0 | 0.00 | 0.00 | 0.00 | 44 | 1011.0 |
| 20260501213005 | 65 | 205 | 9.0 | 16.0 | 0.00 | 0.00 | 0.00 | 44 | 1011.0 |
| 20260501212505 | 66 | 206 | 7.0 | 14.0 | 0.00 | 0.00 | 0.00 | 44 | 1011.1 |
| 20260501212006 | 66 | 202 | 0.0 | 0.0 | 0.00 | 0.00 | 0.00 | 45 | 1011.1 |
| 20260501211505 | 66 | 248 | 0.0 | 0.0 | 0.00 | 0.00 | 0.00 | 44 | 1011.2 |
| 20260501211006 | 66 | 210 | 1.0 | 9.0 | 0.00 | 0.00 | 0.00 | 43 | 1011.2 |
| 20260501210505 | 66 | 202 | 3.0 | 10.0 | 0.00 | 0.00 | 0.00 | 43 | 1011.2 |
| 20260501210005 | 66 | 210 | 4.0 | 10.0 | 0.00 | 0.00 | 0.00 | 43 | 1011.1 |
| 20260501205505 | 67 | 222 | 1.0 | 7.0 | 0.00 | 0.00 | 0.00 | 43 | 1011.3 |
| 20260501205005 | 67 | 205 | 7.0 | 14.0 | 0.00 | 0.00 | 0.00 | 42 | 1011.3 |
| 20260501204505 | 67 | 190 | 3.0 | 10.0 | 0.00 | 0.00 | 0.00 | 41 | 1011.4 |
| 20260501204005 | 68 | 221 | 0.0 | 7.0 | 0.00 | 0.00 | 0.00 | 42 | 1011.3 |
| 20260501203505 | 68 | 212 | 3.0 | 9.0 | 0.00 | 0.00 | 0.00 | 41 | 1011.4 |
| 20260501203005 | 68 | 202 | 1.0 | 6.0 | 0.00 | 0.00 | 0.00 | 42 | 1011.3 |
| 20260501202506 | 68 | 200 | 2.0 | 6.0 | 0.00 | 0.00 | 0.00 | 42 | 1011.4 |
| 20260501202005 | 68 | 206 | 5.0 | 12.0 | 0.00 | 0.00 | 0.00 | 41 | 1011.4 |
| 20260501201505 | 69 | 199 | 9.0 | 13.0 | 0.00 | 0.00 | 0.00 | 41 | 1011.5 |
| 20260501201005 | 70 | 189 | 5.0 | 9.0 | 0.00 | 0.00 | 0.00 | 40 | 1011.4 |
| 20260501200505 | 71 | 207 | 5.0 | 12.0 | 0.00 | 0.00 | 0.00 | 40 | 1011.5 |
| 20260501200005 | 71 | 270 | 0.0 | 0.0 | 0.00 | 0.00 | 0.00 | 40 | 1011.4 |
| 20260501195505 | 71 | 225 | 0.0 | 7.0 | 0.00 | 0.00 | 0.00 | 40 | 1011.5 |
| 20260501195005 | 72 | 225 | 6.0 | 12.0 | 0.00 | 0.00 | 0.00 | 39 | 1011.4 |
| 20260501194506 | 73 | 223 | 6.0 | 13.0 | 0.00 | 0.00 | 0.00 | 38 | 1011.4 |
| 20260501194006 | 74 | 193 | 5.0 | 9.0 | 0.00 | 0.00 | 0.00 | 38 | 1011.4 |
| 20260501193005 | 76 | 221 | 0.0 | 0.0 | 0.00 | 0.00 | 0.00 | 38 | 1011.5 |
| 20260501192505 | 76 | 202 | 0.0 | 13.0 | 0.00 | 0.00 | 0.00 | 37 | 1011.6 |
| 20260501192005 | 78 | 195 | 1.0 | 7.0 | 0.00 | 0.00 | 0.00 | 36 | 1011.6 |
| 20260501191506 | 78 | 315 | 0.0 | 0.0 | 0.00 | 0.00 | 0.00 | 37 | 1011.8 |
| 20260501191005 | 78 | 233 | 0.0 | 0.0 | 0.00 | 0.00 | 0.00 | 36 | 1011.8 |
| 20260501190505 | 79 | 244 | 0.0 | 0.0 | 0.00 | 0.00 | 0.00 | 37 | 1011.8 |
| 20260501185505 | 80 | 225 | 0.0 | 9.0 | 0.00 | 0.00 | 0.00 | 34 | 1012.0 |
| 20260501185006 | 82 | 191 | 9.0 | 12.0 | 0.00 | 0.00 | 0.00 | 33 | 1012.2 |
| 20260501184004 | 83 | 315 | 0.0 | 0.0 | 0.00 | 0.00 | 0.00 | 36 | 1012.3 |
| 20260501183504 | 82 | 321 | 0.0 | 0.0 | 0.00 | 0.00 | 0.00 | 35 | 1012.3 |
| 20260501183005 | 81 | 202 | 1.0 | 6.0 | 0.00 | 0.00 | 0.00 | 35 | 1012.2 |
| 20260501182505 | 80 | 314 | 0.0 | 0.0 | 0.00 | 0.00 | 0.00 | 35 | 1012.3 |
| 20260501182006 | 81 | 0 | 0.0 | 8.0 | 0.00 | 0.00 | 0.00 | 34 | 1012.3 |
| 20260501181505 | 81 | 330 | 0.0 | 5.0 | 0.00 | 0.00 | 0.00 | 36 | 1012.3 |
| 20260501181005 | 80 | 201 | 0.0 | 9.0 | 0.00 | 0.00 | 0.00 | 34 | 1012.5 |
| 20260501180505 | 81 | 197 | 6.0 | 9.0 | 0.00 | 0.00 | 0.00 | 34 | 1012.3 |
| 20260501175505 | 82 | 202 | 0.0 | 5.0 | 0.00 | 0.00 | 0.00 | 35 | 1012.4 |
| 20260501175005 | 83 | 202 | 4.0 | 10.0 | 0.00 | 0.00 | 0.00 | 37 | 1012.5 |
| 20260501174505 | 82 | 202 | 0.0 | 0.0 | 0.00 | 0.00 | 0.00 | 36 | 1012.4 |
| 20260501174005 | 82 | 202 | 3.0 | 8.0 | 0.00 | 0.00 | 0.00 | 36 | 1012.6 |
| 20260501173505 | 81 | 225 | 0.0 | 0.0 | 0.00 | 0.00 | 0.00 | 38 | 1012.5 |
| 20260501173005 | 80 | 225 | 0.0 | 0.0 | 0.00 | 0.00 | 0.00 | 37 | 1012.4 |
| 20260501172505 | 79 | 225 | 2.0 | 6.0 | 0.00 | 0.00 | 0.00 | 37 | 1012.3 |
| 20260501172005 | 79 | 180 | 1.0 | 5.0 | 0.00 | 0.00 | 0.00 | 36 | 1012.4 |
| 20260501171506 | 79 | 158 | 1.0 | 5.0 | 0.00 | 0.00 | 0.00 | 36 | 1012.4 |